Weather History for Victoria, BC

Change the Weather History Date:

Thursday, October 11, 2012

  Actual Average Record
Temperature  
Mean Temperature 50 °F -  
Max Temperature 52 °F 54 °F 64 °F (2000)
Min Temperature 49 °F 40 °F 35 °F (2002)
Degree Days  
Heating Degree Days 14    
Moisture  
Dew Point 46 °F    
Average Humidity 84    
Maximum Humidity 94    
Minimum Humidity 72    
Precipitation  
Precipitation 0.00 in 0.13 in - ()
Sea Level Pressure  
Sea Level Pressure 29.93 in    
Wind  
Wind Speed 2 mph ()    
Max Wind Speed 9 mph    
Max Gust Speed -    
Visibility 7.0 miles    
Events Rain    
Averages and records for this station are not official NWS values.
T = Trace of Precipitation, MM = Missing Value Source: Averaged Metar Reports

Daily Weather History Graph

Daily Weather History Graph

Search for Another Location

Airport:

Trip Planner

Search our weather history database for the weather conditions in past years. The results will help you decide how hot, cold, wet, or windy it might be!

Date:

Astronomy

Oct. 11, 2012 Rise Set
Actual Time 7:28 AM PDT 6:30 PM PDT
Civil Twilight 6:57 AM PDT 7:02 PM PDT
Nautical Twilight 6:20 AM PDT 7:38 PM PDT
Astronomical Twilight 5:44 AM PDT 8:15 PM PDT
Moon 2:54 AM PDT (10/11) 4:26 PM PDT (10/11)
Length of Visible Light 12h 05m
Length of Day
11h 02m
Waning Crescent, 17% of the Moon is Illuminated
Oct 11
Waning Crescent
Oct 15
New
Oct 21
First Quarter
Oct 29
Full
Nov 6
Last Quarter

Hourly Weather History & Observations

Time (PDT) Temp. Dew Point Humidity Pressure Visibility Wind Dir Wind Speed Gust Speed Precip Events Conditions
12:00 AM 51.8 °F 48.2 °F 88% 30.02 in 7.0 mi Calm Calm - N/A   Overcast
1:00 AM 51.8 °F 46.4 °F 82% 30.02 in 8.0 mi Calm Calm - N/A   Overcast
2:00 AM 50.0 °F 46.4 °F 87% 30.02 in 8.0 mi NNE 3.5 mph - N/A   Overcast
3:00 AM 50.0 °F 46.4 °F 87% 30.01 in 8.0 mi North 4.6 mph - N/A   Overcast
4:00 AM 50.0 °F 46.4 °F 87% 30.01 in 7.0 mi Calm Calm - N/A   Overcast
4:09 AM 50.0 °F - N/A% - 6.0 mi Calm Calm - N/A   Light Drizzle
4:52 AM 50.0 °F - N/A% - 6.0 mi Calm Calm - N/A   Light Drizzle
5:00 AM 50 °F 47 °F 87% 30.01 in 6 mi Calm Calm - - Rain Light Drizzle
5:00 AM 50.0 °F 48.2 °F 94% 30.01 in 6.0 mi Calm Calm - N/A   Light Drizzle
5:27 AM 50.0 °F - N/A% - 4.0 mi Calm Calm - N/A   Light Drizzle
6:00 AM 50.0 °F 48.2 °F 94% 29.99 in 4.0 mi Calm Calm - N/A   Overcast
6:08 AM 50.0 °F - N/A% - 4.0 mi Calm Calm - N/A   Light Drizzle
7:00 AM 50.0 °F 48.2 °F 94% 29.99 in 4.0 mi Calm Calm - N/A   Overcast
7:19 AM 50.0 °F - N/A% - 4.0 mi Calm Calm - N/A   Light Drizzle
8:00 AM 50.0 °F 48.2 °F 94% 29.99 in 3.0 mi Calm Calm - N/A   Light Drizzle
9:00 AM 50.0 °F 48.2 °F 94% 29.99 in 2.5 mi Calm Calm - N/A   Light Drizzle
9:29 AM 50.0 °F - N/A% - 4.0 mi Calm Calm - N/A   Light Drizzle
10:00 AM 50.0 °F 46.4 °F 87% 29.99 in 6.0 mi Calm Calm - N/A   Overcast
10:24 AM 50.0 °F - N/A% - 6.0 mi Calm Calm - N/A   Overcast
11:00 AM 50 °F 46 °F 82% 29.98 in 5 mi Calm Calm - - Rain Light Drizzle
11:00 AM 50.0 °F 46.4 °F 87% 29.98 in 5.0 mi Calm Calm - N/A   Light Drizzle
11:23 AM 50.0 °F - N/A% - 6.0 mi SSE 3.5 mph - N/A   Overcast
12:00 PM 51.8 °F 46.4 °F 82% 29.97 in 7.0 mi Calm Calm - N/A   Overcast
1:00 PM 51.8 °F 44.6 °F 76% 29.95 in 8.0 mi South 3.5 mph - N/A   Overcast
2:00 PM 51.8 °F 46.4 °F 82% 29.93 in 8.0 mi ESE 4.6 mph - N/A   Overcast
3:00 PM 51.8 °F 44.6 °F 76% 29.91 in 10.0 mi ESE 4.6 mph - N/A   Overcast
4:00 PM 51.8 °F 44.6 °F 76% 29.88 in 12.0 mi East 5.8 mph - N/A   Overcast
5:00 PM 51 °F 45 °F 72% 29.86 in 12 mi SE 9.2 mph - -   Partly Cloudy
5:00 PM 50.0 °F 44.6 °F 82% 29.86 in 12.0 mi SE 9.2 mph - N/A   Mostly Cloudy
6:00 PM 50.0 °F 44.6 °F 82% 29.84 in 10.0 mi SE 8.1 mph - N/A   Overcast
7:00 PM 50.0 °F 44.6 °F 82% 29.83 in 10.0 mi SE 6.9 mph - N/A   Overcast
8:00 PM 50.0 °F 44.6 °F 82% 29.83 in 10.0 mi SE 8.1 mph - N/A   Overcast
9:00 PM 50.0 °F 44.6 °F 82% 29.82 in 8.0 mi SSE 4.6 mph - N/A   Overcast
9:49 PM 50.0 °F - N/A% - 8.0 mi SE 4.6 mph - N/A   Overcast
10:00 PM 50.0 °F 44.6 °F 82% 29.81 in 8.0 mi Calm Calm - N/A   Overcast
11:00 PM 49 °F 45 °F 83% 29.81 in 7 mi SE 4.6 mph - -   Overcast
11:00 PM 50.0 °F 44.6 °F 82% 29.81 in 8.0 mi SE 3.5 mph - N/A   Overcast
11:15 PM 50.0 °F - N/A% - 8.0 mi Calm Calm - N/A   Overcast